Météo par heure à Alinowo

Ce jour, 29 Octobre, Jeudi

Heure Température Précipitation Vent Pression Humidité
00:00 +9°C° 0 mm 3 m/s 750 mmHg 83%
01:00 +8°C° 0 mm 3 m/s 750 mmHg 84%
02:00 +8°C° 0 mm 3 m/s 750 mmHg 85%
03:00 +8°C° 0 mm 3 m/s 750 mmHg 87%
04:00 +8°C° 0 mm 3 m/s 749 mmHg 88%
05:00 +8°C° 0 mm 3 m/s 749 mmHg 88%
06:00 +8°C° 0 mm 3 m/s 749 mmHg 88%
07:00 +7°C° 0 mm 4 m/s 749 mmHg 87%
08:00 +8°C° 0 mm 4 m/s 749 mmHg 83%
09:00 +9°C° 0 mm 5 m/s 749 mmHg 79%
10:00 +10°C° 0 mm 5 m/s 749 mmHg 76%
11:00 +10°C° 0.4 mm 5 m/s 749 mmHg 78%
12:00 +10°C° 0.4 mm 5 m/s 749 mmHg 81%
13:00 +10°C° 0.4 mm 5 m/s 749 mmHg 84%
14:00 +10°C° 0.1 mm 5 m/s 749 mmHg 81%
15:00 +11°C° 0.1 mm 4 m/s 749 mmHg 77%
16:00 +10°C° 0.1 mm 4 m/s 750 mmHg 74%
17:00 +10°C° 0 mm 4 m/s 750 mmHg 76%
18:00 +8°C° 0 mm 4 m/s 751 mmHg 78%
19:00 +7°C° 0 mm 4 m/s 751 mmHg 80%
20:00 +7°C° 0 mm 4 m/s 752 mmHg 80%
21:00 +7°C° 0 mm 4 m/s 752 mmHg 80%
22:00 +7°C° 0 mm 4 m/s 752 mmHg 81%
23:00 +6°C° 0 mm 4 m/s 753 mmHg 82%

Demain, 30 Octobre, Vendredi

Heure Température Précipitation Vent Pression Humidité
00:00 +6°C° 0 mm 4 m/s 753 mmHg 84%
01:00 +6°C° 0 mm 5 m/s 753 mmHg 86%
02:00 +6°C° 0 mm 4 m/s 753 mmHg 88%
03:00 +5°C° 0 mm 4 m/s 753 mmHg 90%
04:00 +5°C° 0 mm 4 m/s 753 mmHg 91%
05:00 +5°C° 0 mm 4 m/s 753 mmHg 91%
06:00 +5°C° 0 mm 3 m/s 753 mmHg 91%
07:00 +5°C° 0 mm 3 m/s 753 mmHg 91%
08:00 +5°C° 0 mm 3 m/s 753 mmHg 89%
09:00 +7°C° 0 mm 3 m/s 753 mmHg 86%
10:00 +7°C° 0 mm 4 m/s 752 mmHg 83%
11:00 +7°C° 0.6 mm 4 m/s 752 mmHg 86%
12:00 +8°C° 0.6 mm 3 m/s 752 mmHg 89%
13:00 +8°C° 0.6 mm 3 m/s 751 mmHg 92%
14:00 +8°C° 1.1 mm 3 m/s 751 mmHg 93%
15:00 +8°C° 1.1 mm 2 m/s 751 mmHg 95%
16:00 +8°C° 1.1 mm 2 m/s 751 mmHg 96%
17:00 +9°C° 0.6 mm 1 m/s 751 mmHg 97%
18:00 +9°C° 0.6 mm 1 m/s 751 mmHg 97%
19:00 +9°C° 0.6 mm 1 m/s 752 mmHg 97%
20:00 +9°C° 0.5 mm 1 m/s 752 mmHg 97%
21:00 +9°C° 0.5 mm 1 m/s 752 mmHg 97%
22:00 +9°C° 0.5 mm 1 m/s 753 mmHg 97%
23:00 +9°C° 0.2 mm 1 m/s 753 mmHg 96%

Après-demain, 31 Octobre, Samedi

Heure Température Précipitation Vent Pression Humidité
00:00 +9°C° 0.2 mm 1 m/s 754 mmHg 96%
01:00 +9°C° 0.2 mm 1 m/s 754 mmHg 96%
02:00 +8°C° 0 mm 1 m/s 754 mmHg 96%
03:00 +8°C° 0 mm 1 m/s 755 mmHg 96%
04:00 +7°C° 0 mm 2 m/s 755 mmHg 95%
05:00 +7°C° 0 mm 1 m/s 756 mmHg 95%
06:00 +7°C° 0 mm 1 m/s 756 mmHg 94%
07:00 +7°C° 0 mm 1 m/s 757 mmHg 93%
08:00 +8°C° 0 mm 1 m/s 757 mmHg 87%
09:00 +9°C° 0 mm 1 m/s 758 mmHg 82%
10:00 +10°C° 0 mm 1 m/s 758 mmHg 76%
11:00 +11°C° 0 mm 1 m/s 758 mmHg 72%
12:00 +12°C° 0 mm 1 m/s 758 mmHg 69%
13:00 +12°C° 0 mm 1 m/s 758 mmHg 65%
14:00 +12°C° 0 mm 1 m/s 758 mmHg 70%
15:00 +11°C° 0 mm 1 m/s 758 mmHg 74%
16:00 +10°C° 0 mm 1 m/s 758 mmHg 78%
17:00 +10°C° 0 mm 1 m/s 758 mmHg 82%
18:00 +8°C° 0 mm 2 m/s 758 mmHg 85%
19:00 +7°C° 0 mm 2 m/s 759 mmHg 88%
20:00 +7°C° 0 mm 2 m/s 759 mmHg 89%
21:00 +7°C° 0 mm 2 m/s 759 mmHg 90%
22:00 +7°C° 0 mm 2 m/s 758 mmHg 91%
23:00 +5°C° 0 mm 3 m/s 758 mmHg 92%

1 Novembre, Dimanche

Heure Température Précipitation Vent Pression Humidité
00:00 +5°C° 0 mm 3 m/s 758 mmHg 92%
01:00 +5°C° 0 mm 3 m/s 758 mmHg 92%
02:00 +5°C° 0 mm 3 m/s 758 mmHg 92%
03:00 +4°C° 0 mm 3 m/s 757 mmHg 92%
04:00 +4°C° 0 mm 3 m/s 757 mmHg 92%
05:00 +4°C° 0 mm 3 m/s 757 mmHg 91%
06:00 +4°C° 0 mm 3 m/s 757 mmHg 91%
07:00 +4°C° 0 mm 4 m/s 757 mmHg 91%
08:00 +5°C° 0 mm 4 m/s 756 mmHg 85%
09:00 +6°C° 0 mm 5 m/s 756 mmHg 79%
10:00 +7°C° 0 mm 5 m/s 756 mmHg 73%
11:00 +8°C° 0 mm 6 m/s 756 mmHg 69%
12:00 +9°C° 0 mm 6 m/s 755 mmHg 66%
13:00 +10°C° 0 mm 6 m/s 755 mmHg 62%
14:00 +10°C° 0 mm 5 m/s 754 mmHg 65%
15:00 +9°C° 0 mm 5 m/s 754 mmHg 67%
16:00 +10°C° 0 mm 4 m/s 754 mmHg 70%
17:00 +8°C° 0 mm 5 m/s 754 mmHg 74%
18:00 +8°C° 0 mm 5 m/s 753 mmHg 77%
19:00 +8°C° 0 mm 5 m/s 753 mmHg 80%
20:00 +8°C° 0 mm 4 m/s 753 mmHg 82%
21:00 +7°C° 0 mm 4 m/s 753 mmHg 85%
22:00 +7°C° 0 mm 4 m/s 753 mmHg 87%
23:00 +7°C° 0 mm 4 m/s 753 mmHg 88%

2 Novembre, Lundi

Heure Température Précipitation Vent Pression Humidité
00:00 +7°C° 0 mm 4 m/s 753 mmHg 90%
01:00 +7°C° 0 mm 4 m/s 753 mmHg 92%
02:00 +8°C° 0 mm 4 m/s 752 mmHg 90%
03:00 +8°C° 0 mm 4 m/s 752 mmHg 89%
04:00 +8°C° 0 mm 4 m/s 752 mmHg 87%
05:00 +8°C° 0 mm 4 m/s 752 mmHg 88%
06:00 +8°C° 0 mm 4 m/s 751 mmHg 88%
07:00 +8°C° 0 mm 4 m/s 751 mmHg 88%
08:00 +10°C° 0 mm 4 m/s 751 mmHg 84%
09:00 +10°C° 0 mm 5 m/s 751 mmHg 80%
10:00 +13°C° 0 mm 5 m/s 751 mmHg 76%
11:00 +13°C° 0.1 mm 5 m/s 751 mmHg 77%
12:00 +13°C° 0.1 mm 5 m/s 751 mmHg 78%
13:00 +14°C° 0.1 mm 4 m/s 751 mmHg 79%
14:00 +13°C° 0.1 mm 4 m/s 751 mmHg 82%
15:00 +13°C° 0.1 mm 4 m/s 751 mmHg 86%
16:00 +13°C° 0.1 mm 3 m/s 751 mmHg 90%
17:00 +12°C° 0 mm 3 m/s 751 mmHg 91%
18:00 +12°C° 0 mm 3 m/s 751 mmHg 91%
19:00 +12°C° 0 mm 3 m/s 751 mmHg 92%
20:00 +12°C° 0 mm 3 m/s 751 mmHg 90%
21:00 +12°C° 0 mm 3 m/s 751 mmHg 88%
22:00 +13°C° 0 mm 4 m/s 751 mmHg 87%
23:00 +13°C° 0 mm 3 m/s 751 mmHg 87%

3 Novembre, Mardi

Heure Température Précipitation Vent Pression Humidité
00:00 +13°C° 0 mm 3 m/s 751 mmHg 87%
01:00 +13°C° 0 mm 3 m/s 751 mmHg 87%
02:00 +13°C° 0 mm 3 m/s 751 mmHg 87%
03:00 +13°C° 0 mm 3 m/s 751 mmHg 88%
04:00 +12°C° 0 mm 3 m/s 751 mmHg 89%
05:00 +13°C° 0 mm 2 m/s 752 mmHg 89%
06:00 +13°C° 0 mm 2 m/s 752 mmHg 90%
07:00 +13°C° 0 mm 2 m/s 752 mmHg 90%
08:00 +14°C° 0 mm 2 m/s 753 mmHg 89%
09:00 +14°C° 0 mm 2 m/s 753 mmHg 88%
10:00 +15°C° 0 mm 2 m/s 753 mmHg 87%
11:00 +15°C° 0 mm 2 m/s 753 mmHg 88%
12:00 +15°C° 0 mm 1 m/s 754 mmHg 88%
13:00 +15°C° 0 mm 1 m/s 754 mmHg 88%
14:00 +15°C° 0.1 mm 1 m/s 754 mmHg 90%
15:00 +14°C° 0.1 mm 1 m/s 754 mmHg 92%
16:00 +14°C° 0.1 mm 1 m/s 754 mmHg 94%
17:00 +14°C° 0.1 mm 1 m/s 754 mmHg 94%
18:00 +14°C° 0.1 mm 2 m/s 754 mmHg 95%
19:00 +14°C° 0.1 mm 2 m/s 755 mmHg 96%
20:00 +14°C° 0.6 mm 2 m/s 755 mmHg 96%
21:00 +14°C° 0.6 mm 2 m/s 755 mmHg 97%
22:00 +14°C° 0.6 mm 2 m/s 755 mmHg 97%
23:00 +14°C° 0.9 mm 2 m/s 755 mmHg 97%
Voir plus

Nous avons besoin de votre consentement

Meteoprog et ses fournisseurs de services peuvent stocker et accéder à des données personnelles telles que des cookies, des identifiants d'appareils ou d'autres technologies similaires sur votre appareil et traiter ces données pour personnaliser le contenu et les publicités, ainsi que pour fournir des fonctionnalités de médias sociaux et analyser le trafic.

  • Stocker et/ou accéder à des informations sur votre appareil

    Des cookies, des identifiants d'appareils ou d'autres informations peuvent être stockés ou accessibles sur votre appareil aux fins indiquées ci-dessus.

  • Annonces et contenus personnalisés, mesure des annonces et des contenus, connaissance de l'audience et développement de produits

    Les annonces et le contenu peuvent être personnalisés en fonction d'un profil. D'autres données peuvent être ajoutées pour mieux personnaliser les annonces et le contenu. Les performances des publicités et du contenu peuvent être mesurées. Il est possible d'obtenir des informations sur le public qui a vu les publicités et le contenu. Ces données peuvent être utilisées pour développer ou améliorer l'expérience de l'utilisateur, les systèmes et les logiciels.

En cliquant sur "J'accepte", vous autorisez l'utilisation de cookies, des identifiants d'appareils, des balises web ou d'autres technologies similaires. Vos paramètres peuvent être modifiés dans le navigateur de votre appareil.

Dans certains cas, des intérêts légitimes peuvent être invoqués plutôt qu'un consentement. Vous pouvez en savoir plus à ce sujet dans notre Politique de confidentialité et de cookies.